owner,sensor,date,latitude,longitude,vertical_datum,direction_of_sea_water_velocity,sea_water_speed,upward_sea_water_velocity,qcFlag 
TABS,ioos:station:wmo:42046:1,2009-11-01T00:00:00Z,27.8903,-94.0367,2.0,247.2518475,10.68079585,-99999.0,'11111222,11111222,99999999' 
TABS,ioos:station:wmo:42046:1,2009-11-01T00:30:00Z,27.8903,-94.0367,2.0,239.7944446,11.27015971,-99999.0,'11111222,11111222,99999999' 
TABS,ioos:station:wmo:42046:1,2009-11-01T01:00:00Z,27.8903,-94.0367,2.0,265.5149836,12.78915556,-99999.0,'11111222,11111222,99999999' 
TABS,ioos:station:wmo:42046:1,2009-11-01T01:30:00Z,27.8903,-94.0367,2.0,270.7296817,12.57101826,-99999.0,'11111222,11111222,99999999' 
TABS,ioos:station:wmo:42046:1,2009-11-01T02:00:00Z,27.8903,-94.0367,2.0,274.0113991,12.58081476,-99999.0,'11111222,11111222,99999999' 
TABS,ioos:station:wmo:42046:1,2009-11-01T02:30:00Z,27.8903,-94.0367,2.0,265.888364,11.15871408,-99999.0,'11111222,11111222,99999999' 
TABS,ioos:station:wmo:42046:1,2009-11-01T03:00:00Z,27.8903,-94.0367,2.0,269.6713454,15.7102578,-99999.0,'11111222,11111222,99999999' 
TABS,ioos:station:wmo:42046:1,2009-11-01T03:30:00Z,27.8903,-94.0367,2.0,286.1622076,14.90922198,-99999.0,'11111222,11111222,99999999' 
TABS,ioos:station:wmo:42046:1,2009-11-01T04:00:00Z,27.8903,-94.0367,2.0,279.4568142,15.94670185,-99999.0,'11111222,11111222,99999999' 
TABS,ioos:station:wmo:42046:1,2009-11-01T04:30:00Z,27.8903,-94.0367,2.0,280.5724693,10.35579065,-99999.0,'11111222,11111222,99999999' 
TABS,ioos:station:wmo:42046:1,2009-11-01T05:00:00Z,27.8903,-94.0367,2.0,286.4511447,12.14726718,-99999.0,'11111222,11111222,99999999' 
TABS,ioos:station:wmo:42046:1,2009-11-01T05:30:00Z,27.8903,-94.0367,2.0,279.1536759,10.05807636,-99999.0,'11111222,11111222,99999999' 
TABS,ioos:station:wmo:42046:1,2009-11-01T06:00:00Z,27.8903,-94.0367,2.0,264.0183652,8.637019162,-99999.0,'11133222,11111222,99999999' 
TABS,ioos:station:wmo:42046:1,2009-11-01T06:30:00Z,27.8903,-94.0367,2.0,277.7768319,4.582139238,-99999.0,'11133222,11111222,99999999' 
TABS,ioos:station:wmo:42046:1,2009-11-01T07:00:00Z,27.8903,-94.0367,2.0,303.5526386,9.22746444,-99999.0,'11133222,11111222,99999999' 
TABS,ioos:station:wmo:42046:1,2009-11-01T07:30:00Z,27.8903,-94.0367,2.0,303.6904097,4.831438709,-99999.0,'11133222,11111222,99999999' 
TABS,ioos:station:wmo:42046:1,2009-11-01T08:00:00Z,27.8903,-94.0367,2.0,294.5719887,6.685416965,-99999.0,'11133222,11111222,99999999' 
TABS,ioos:station:wmo:42046:1,2009-11-01T08:30:00Z,27.8903,-94.0367,2.0,280.1780196,6.847751456,-99999.0,'11133222,11111222,99999999' 
TABS,ioos:station:wmo:42046:1,2009-11-01T09:00:00Z,27.8903,-94.0367,2.0,240.4041203,3.806638937,-99999.0,'11133222,11111222,99999999' 
TABS,ioos:station:wmo:42046:1,2009-11-01T09:30:00Z,27.8903,-94.0367,2.0,258.5144576,8.336935888,-99999.0,'11133222,11111222,99999999' 
TABS,ioos:station:wmo:42046:1,2009-11-01T10:00:00Z,27.8903,-94.0367,2.0,262.761832,10.71538147,-99999.0,'11111222,11111222,99999999' 
TABS,ioos:station:wmo:42046:1,2009-11-01T10:30:00Z,27.8903,-94.0367,2.0,261.140639,7.337533646,-99999.0,'11133222,11111222,99999999' 
TABS,ioos:station:wmo:42046:1,2009-11-01T11:00:00Z,27.8903,-94.0367,2.0,226.4847943,3.819659671,-99999.0,'11133222,11111222,99999999' 
TABS,ioos:station:wmo:42046:1,2009-11-01T11:30:00Z,27.8903,-94.0367,2.0,286.4489906,6.568835513,-99999.0,'11133222,11111222,99999999' 
TABS,ioos:station:wmo:42046:1,2009-11-01T12:00:00Z,27.8903,-94.0367,2.0,289.938366,6.51020737,-99999.0,'11133222,11111222,99999999' 
TABS,ioos:station:wmo:42046:1,2009-11-01T12:30:00Z,27.8903,-94.0367,2.0,244.2830216,5.738379562,-99999.0,'11133222,11111222,99999999' 
TABS,ioos:station:wmo:42046:1,2009-11-01T13:00:00Z,27.8903,-94.0367,2.0,245.9688083,10.21540503,-99999.0,'11111222,11111222,99999999' 
TABS,ioos:station:wmo:42046:1,2009-11-01T13:30:00Z,27.8903,-94.0367,2.0,258.3325943,6.923034017,-99999.0,'11133222,11111222,99999999' 
TABS,ioos:station:wmo:42046:1,2009-11-01T14:00:00Z,27.8903,-94.0367,2.0,289.5104538,5.898686294,-99999.0,'11133222,11111222,99999999' 
TABS,ioos:station:wmo:42046:1,2009-11-01T14:30:00Z,27.8903,-94.0367,2.0,199.9717766,8.841747565,-99999.0,'11133222,11111222,99999999' 
TABS,ioos:station:wmo:42046:1,2009-11-01T15:00:00Z,27.8903,-94.0367,2.0,299.7987425,5.312409999,-99999.0,'11133222,11111222,99999999' 
TABS,ioos:station:wmo:42046:1,2009-11-01T15:30:00Z,27.8903,-94.0367,2.0,263.5752882,9.026682669,-99999.0,'11133222,11111222,99999999' 
TABS,ioos:station:wmo:42046:1,2009-11-01T16:00:00Z,27.8903,-94.0367,2.0,269.5782952,6.800183821,-99999.0,'11133222,11111222,99999999' 
TABS,ioos:station:wmo:42046:1,2009-11-01T16:30:00Z,27.8903,-94.0367,2.0,268.1761762,5.342705307,-99999.0,'11133222,11111222,99999999' 
TABS,ioos:station:wmo:42046:1,2009-11-01T17:00:00Z,27.8903,-94.0367,2.0,274.7386938,7.505651204,-99999.0,'11133222,11111222,99999999' 
TABS,ioos:station:wmo:42046:1,2009-11-01T17:30:00Z,27.8903,-94.0367,2.0,298.6952582,5.415025392,-99999.0,'11133222,11111222,99999999' 
TABS,ioos:station:wmo:42046:1,2009-11-01T18:00:00Z,27.8903,-94.0367,2.0,298.1213066,6.258825768,-99999.0,'11133222,11111222,99999999' 
TABS,ioos:station:wmo:42046:1,2009-11-01T18:30:00Z,27.8903,-94.0367,2.0,287.4840104,3.428381542,-99999.0,'11133222,11111222,99999999' 
TABS,ioos:station:wmo:42046:1,2009-11-01T19:00:00Z,27.8903,-94.0367,2.0,264.7357612,5.232064602,-99999.0,'11133222,11111222,99999999' 
TABS,ioos:station:wmo:42046:1,2009-11-01T19:30:00Z,27.8903,-94.0367,2.0,297.9179119,5.873550885,-99999.0,'11133222,11111222,99999999' 
TABS,ioos:station:wmo:42046:1,2009-11-01T20:00:00Z,27.8903,-94.0367,2.0,296.8408677,4.651075145,-99999.0,'11133222,11111222,99999999' 
TABS,ioos:station:wmo:42046:1,2009-11-01T20:30:00Z,27.8903,-94.0367,2.0,242.0143278,5.412947441,-99999.0,'11133222,11111222,99999999' 
TABS,ioos:station:wmo:42046:1,2009-11-01T21:00:00Z,27.8903,-94.0367,2.0,247.5675406,5.39849053,-99999.0,'11133222,11111222,99999999' 
TABS,ioos:station:wmo:42046:1,2009-11-01T21:30:00Z,27.8903,-94.0367,2.0,250.0839883,10.15746523,-99999.0,'11111222,11111222,99999999' 
TABS,ioos:station:wmo:42046:1,2009-11-01T22:00:00Z,27.8903,-94.0367,2.0,236.1204445,10.081731,-99999.0,'11111222,11111222,99999999' 
TABS,ioos:station:wmo:42046:1,2009-11-01T22:30:00Z,27.8903,-94.0367,2.0,235.4440993,7.528140541,-99999.0,'11133222,11111222,99999999' 
TABS,ioos:station:wmo:42046:1,2009-11-01T23:00:00Z,27.8903,-94.0367,2.0,228.9018371,5.506986472,-99999.0,'11133222,11111222,99999999' 
TABS,ioos:station:wmo:42046:1,2009-11-01T23:30:00Z,27.8903,-94.0367,2.0,249.5185468,8.945462537,-99999.0,'11133222,11111222,99999999' 
TABS,ioos:station:wmo:42046:1,2009-11-02T00:00:00Z,27.8903,-94.0367,2.0,241.9704833,7.001178472,-99999.0,'11133222,11111222,99999999' 
TABS,ioos:station:wmo:42046:1,2009-11-02T00:30:00Z,27.8903,-94.0367,2.0,246.9119518,6.78330303,-99999.0,'11133222,11111222,99999999' 
TABS,ioos:station:wmo:42046:1,2009-11-02T01:00:00Z,27.8903,-94.0367,2.0,276.3587985,6.952769232,-99999.0,'11133222,11111222,99999999' 
TABS,ioos:station:wmo:42046:1,2009-11-02T01:30:00Z,27.8903,-94.0367,2.0,279.2434506,8.591553992,-99999.0,'11133222,11111222,99999999' 
TABS,ioos:station:wmo:42046:1,2009-11-02T02:00:00Z,27.8903,-94.0367,2.0,285.1937704,7.326069888,-99999.0,'11133222,11111222,99999999' 
TABS,ioos:station:wmo:42046:1,2009-11-02T02:30:00Z,27.8903,-94.0367,2.0,269.7159396,6.060074257,-99999.0,'11133222,11111222,99999999' 
TABS,ioos:station:wmo:42046:1,2009-11-02T03:00:00Z,27.8903,-94.0367,2.0,290.5804717,11.15168149,-99999.0,'11111222,11111222,99999999' 
TABS,ioos:station:wmo:42046:1,2009-11-02T03:30:00Z,27.8903,-94.0367,2.0,292.112509,6.163318911,-99999.0,'11133222,11111222,99999999' 
TABS,ioos:station:wmo:42046:1,2009-11-02T04:00:00Z,27.8903,-94.0367,2.0,323.1862246,12.31600585,-99999.0,'11111222,11111222,99999999' 
TABS,ioos:station:wmo:42046:1,2009-11-02T04:30:00Z,27.8903,-94.0367,2.0,327.332456,10.72683551,-99999.0,'11111222,11111222,99999999' 
TABS,ioos:station:wmo:42046:1,2009-11-02T05:00:00Z,27.8903,-94.0367,2.0,305.2858202,11.35634184,-99999.0,'11111222,11111222,99999999' 
TABS,ioos:station:wmo:42046:1,2009-11-02T05:30:00Z,27.8903,-94.0367,2.0,312.7680324,9.43996822,-99999.0,'11133222,11111222,99999999' 
TABS,ioos:station:wmo:42046:1,2009-11-02T06:00:00Z,27.8903,-94.0367,2.0,302.9967091,13.97392214,-99999.0,'11111222,11111222,99999999' 
TABS,ioos:station:wmo:42046:1,2009-11-02T06:30:00Z,27.8903,-94.0367,2.0,302.7066754,9.53115418,-99999.0,'11133222,11111222,99999999' 
TABS,ioos:station:wmo:42046:1,2009-11-02T07:00:00Z,27.8903,-94.0367,2.0,292.6240174,11.64615387,-99999.0,'11111222,11111222,99999999' 
TABS,ioos:station:wmo:42046:1,2009-11-02T07:30:00Z,27.8903,-94.0367,2.0,309.4095327,11.10490432,-99999.0,'11111222,11111222,99999999' 
TABS,ioos:station:wmo:42046:1,2009-11-02T08:00:00Z,27.8903,-94.0367,2.0,305.7130621,7.229474393,-99999.0,'11133222,11111222,99999999' 
TABS,ioos:station:wmo:42046:1,2009-11-02T08:30:00Z,27.8903,-94.0367,2.0,314.6019746,12.20495801,-99999.0,'11111222,11111222,99999999' 
TABS,ioos:station:wmo:42046:1,2009-11-02T09:00:00Z,27.8903,-94.0367,2.0,301.0142325,11.76137747,-99999.0,'11111222,11111222,99999999' 
TABS,ioos:station:wmo:42046:1,2009-11-02T09:30:00Z,27.8903,-94.0367,2.0,303.3511352,11.24119656,-99999.0,'11111222,11111222,99999999' 
TABS,ioos:station:wmo:42046:1,2009-11-02T10:00:00Z,27.8903,-94.0367,2.0,310.0453134,10.72446269,-99999.0,'11111222,11111222,99999999' 
TABS,ioos:station:wmo:42046:1,2009-11-02T10:30:00Z,27.8903,-94.0367,2.0,322.2919221,8.746936607,-99999.0,'11133222,11111222,99999999' 
TABS,ioos:station:wmo:42046:1,2009-11-02T11:00:00Z,27.8903,-94.0367,2.0,300.8536557,7.117204507,-99999.0,'11133222,11111222,99999999' 
TABS,ioos:station:wmo:42046:1,2009-11-02T11:30:00Z,27.8903,-94.0367,2.0,294.4345843,9.742576661,-99999.0,'11133222,11111222,99999999' 
TABS,ioos:station:wmo:42046:1,2009-11-02T12:00:00Z,27.8903,-94.0367,2.0,305.7625858,4.448831307,-99999.0,'11133222,11111222,99999999' 
TABS,ioos:station:wmo:42046:1,2009-11-02T12:30:00Z,27.8903,-94.0367,2.0,285.9933616,11.57812593,-99999.0,'11111222,11111222,99999999' 
TABS,ioos:station:wmo:42046:1,2009-11-02T13:00:00Z,27.8903,-94.0367,2.0,303.9275592,6.700835769,-99999.0,'11133222,11111222,99999999' 
TABS,ioos:station:wmo:42046:1,2009-11-02T13:30:00Z,27.8903,-94.0367,2.0,276.1856614,8.167545531,-99999.0,'11133222,11111222,99999999' 
TABS,ioos:station:wmo:42046:1,2009-11-02T14:00:00Z,27.8903,-94.0367,2.0,298.3829295,10.43427046,-99999.0,'11111222,11111222,99999999' 
TABS,ioos:station:wmo:42046:1,2009-11-02T14:30:00Z,27.8903,-94.0367,2.0,307.0653359,8.810051078,-99999.0,'11133222,11111222,99999999' 
TABS,ioos:station:wmo:42046:1,2009-11-02T15:00:00Z,27.8903,-94.0367,2.0,307.5176132,8.850564954,-99999.0,'11133222,11111222,99999999' 
TABS,ioos:station:wmo:42046:1,2009-11-02T15:30:00Z,27.8903,-94.0367,2.0,300.7139073,13.35300715,-99999.0,'11111222,11111222,99999999' 
TABS,ioos:station:wmo:42046:1,2009-11-02T16:00:00Z,27.8903,-94.0367,2.0,317.6942864,15.49569295,-99999.0,'11111222,11111222,99999999' 
TABS,ioos:station:wmo:42046:1,2009-11-02T16:30:00Z,27.8903,-94.0367,2.0,323.5310613,14.01434265,-99999.0,'11111222,11111222,99999999' 
TABS,ioos:station:wmo:42046:1,2009-11-02T17:00:00Z,27.8903,-94.0367,2.0,319.8933806,15.33646961,-99999.0,'11111222,11111222,99999999' 
TABS,ioos:station:wmo:42046:1,2009-11-02T17:30:00Z,27.8903,-94.0367,2.0,324.7031502,13.84521578,-99999.0,'11111222,11111222,99999999' 
TABS,ioos:station:wmo:42046:1,2009-11-02T18:00:00Z,27.8903,-94.0367,2.0,331.5494946,16.03682013,-99999.0,'11111222,11111222,99999999' 
TABS,ioos:station:wmo:42046:1,2009-11-02T18:30:00Z,27.8903,-94.0367,2.0,335.4230943,16.37339916,-99999.0,'11111222,11111222,99999999' 
TABS,ioos:station:wmo:42046:1,2009-11-02T19:00:00Z,27.8903,-94.0367,2.0,345.3146012,17.119264,-99999.0,'11111222,11111222,99999999' 
TABS,ioos:station:wmo:42046:1,2009-11-02T19:30:00Z,27.8903,-94.0367,2.0,343.3214607,13.41435798,-99999.0,'11111222,11111222,99999999' 
TABS,ioos:station:wmo:42046:1,2009-11-02T20:00:00Z,27.8903,-94.0367,2.0,339.3509939,13.66808326,-99999.0,'11111222,11111222,99999999' 
TABS,ioos:station:wmo:42046:1,2009-11-02T20:30:00Z,27.8903,-94.0367,2.0,338.7590805,12.72445284,-99999.0,'11111222,11111222,99999999' 
TABS,ioos:station:wmo:42046:1,2009-11-02T21:00:00Z,27.8903,-94.0367,2.0,348.4143003,6.921018711,-99999.0,'11133222,11111222,99999999' 
TABS,ioos:station:wmo:42046:1,2009-11-02T21:30:00Z,27.8903,-94.0367,2.0,5.990235008,6.324531603,-99999.0,'11133222,11111222,99999999' 
TABS,ioos:station:wmo:42046:1,2009-11-02T22:00:00Z,27.8903,-94.0367,2.0,347.1100538,9.458356094,-99999.0,'11133222,11111222,99999999' 
TABS,ioos:station:wmo:42046:1,2009-11-02T22:30:00Z,27.8903,-94.0367,2.0,359.8217199,6.420031153,-99999.0,'11133222,11144222,99999999' 
TABS,ioos:station:wmo:42046:1,2009-11-02T23:00:00Z,27.8903,-94.0367,2.0,321.8247414,3.510911563,-99999.0,'11133222,11111222,99999999' 
TABS,ioos:station:wmo:42046:1,2009-11-02T23:30:00Z,27.8903,-94.0367,2.0,342.4399795,4.143066497,-99999.0,'11133222,11111222,99999999' 
TABS,ioos:station:wmo:42046:1,2009-11-03T00:00:00Z,27.8903,-94.0367,2.0,359.4684796,4.310185611,-99999.0,'11133222,11144222,99999999' 
TABS,ioos:station:wmo:42046:1,2009-11-03T00:30:00Z,27.8903,-94.0367,2.0,286.9987464,4.036334971,-99999.0,'11133222,11111222,99999999' 
TABS,ioos:station:wmo:42046:1,2009-11-03T01:00:00Z,27.8903,-94.0367,2.0,291.7255547,4.187433582,-99999.0,'11133222,11111222,99999999' 
TABS,ioos:station:wmo:42046:1,2009-11-03T01:30:00Z,27.8903,-94.0367,2.0,287.2859378,2.99527962,-99999.0,'11133222,11111222,99999999' 
TABS,ioos:station:wmo:42046:1,2009-11-03T02:00:00Z,27.8903,-94.0367,2.0,257.9048503,2.863564213,-99999.0,'11133222,11111222,99999999' 
TABS,ioos:station:wmo:42046:1,2009-11-03T02:30:00Z,27.8903,-94.0367,2.0,302.498443,6.533008495,-99999.0,'11133222,11111222,99999999' 
TABS,ioos:station:wmo:42046:1,2009-11-03T03:00:00Z,27.8903,-94.0367,2.0,248.182467,6.753739705,-99999.0,'11133222,11111222,99999999' 
TABS,ioos:station:wmo:42046:1,2009-11-03T03:30:00Z,27.8903,-94.0367,2.0,322.6870194,2.326069646,-99999.0,'11133222,11111222,99999999' 
TABS,ioos:station:wmo:42046:1,2009-11-03T04:00:00Z,27.8903,-94.0367,2.0,256.4072661,4.382750278,-99999.0,'11133222,11111222,99999999' 
TABS,ioos:station:wmo:42046:1,2009-11-03T04:30:00Z,27.8903,-94.0367,2.0,346.0905359,5.491019942,-99999.0,'11133222,11111222,99999999' 
TABS,ioos:station:wmo:42046:1,2009-11-03T05:00:00Z,27.8903,-94.0367,2.0,319.5483475,1.248439025,-99999.0,'11133222,11111222,99999999' 
TABS,ioos:station:wmo:42046:1,2009-11-03T05:30:00Z,27.8903,-94.0367,2.0,247.0455462,1.846185256,-99999.0,'11133222,11111222,99999999' 
TABS,ioos:station:wmo:42046:1,2009-11-03T06:00:00Z,27.8903,-94.0367,2.0,318.5766417,3.400735215,-99999.0,'11133222,11111222,99999999' 
TABS,ioos:station:wmo:42046:1,2009-11-03T06:30:00Z,27.8903,-94.0367,2.0,348.7108626,5.465757038,-99999.0,'11133222,11111222,99999999' 
TABS,ioos:station:wmo:42046:1,2009-11-03T07:00:00Z,27.8903,-94.0367,2.0,300.2986803,2.953404815,-99999.0,'11133222,11111222,99999999' 
TABS,ioos:station:wmo:42046:1,2009-11-03T07:30:00Z,27.8903,-94.0367,2.0,305.8839399,6.738998442,-99999.0,'11133222,11111222,99999999' 
TABS,ioos:station:wmo:42046:1,2009-11-03T08:00:00Z,27.8903,-94.0367,2.0,249.1909148,5.573553624,-99999.0,'11133222,11111222,99999999' 
TABS,ioos:station:wmo:42046:1,2009-11-03T08:30:00Z,27.8903,-94.0367,2.0,339.11317,5.469424101,-99999.0,'11133222,11111222,99999999' 
TABS,ioos:station:wmo:42046:1,2009-11-03T09:00:00Z,27.8903,-94.0367,2.0,238.3665838,1.46812806,-99999.0,'11133222,11111222,99999999' 
TABS,ioos:station:wmo:42046:1,2009-11-03T09:30:00Z,27.8903,-94.0367,2.0,302.0057293,4.150951698,-99999.0,'11133222,11111222,99999999' 
TABS,ioos:station:wmo:42046:1,2009-11-03T10:00:00Z,27.8903,-94.0367,2.0,281.6203653,3.624279239,-99999.0,'11133222,11111222,99999999' 
TABS,ioos:station:wmo:42046:1,2009-11-03T10:30:00Z,27.8903,-94.0367,2.0,298.938604,3.348029271,-99999.0,'11133222,11111222,99999999' 
TABS,ioos:station:wmo:42046:1,2009-11-03T11:00:00Z,27.8903,-94.0367,2.0,285.8824345,2.48485412,-99999.0,'11133222,11111222,99999999' 
TABS,ioos:station:wmo:42046:1,2009-11-03T11:30:00Z,27.8903,-94.0367,2.0,281.1707859,4.026276195,-99999.0,'11133222,11111222,99999999' 
TABS,ioos:station:wmo:42046:1,2009-11-03T12:00:00Z,27.8903,-94.0367,2.0,283.3697282,2.292116925,-99999.0,'11133222,11111222,99999999' 
TABS,ioos:station:wmo:42046:1,2009-11-03T12:30:00Z,27.8903,-94.0367,2.0,169.266157,3.704821183,-99999.0,'11133222,11111222,99999999' 
TABS,ioos:station:wmo:42046:1,2009-11-03T13:00:00Z,27.8903,-94.0367,2.0,258.2224839,2.645694616,-99999.0,'11133222,11111222,99999999' 
TABS,ioos:station:wmo:42046:1,2009-11-03T13:30:00Z,27.8903,-94.0367,2.0,209.472415,6.788497625,-99999.0,'11133222,11111222,99999999' 
TABS,ioos:station:wmo:42046:1,2009-11-03T14:00:00Z,27.8903,-94.0367,2.0,153.7332126,1.717323499,-99999.0,'11133222,11111222,99999999' 
TABS,ioos:station:wmo:42046:1,2009-11-03T14:30:00Z,27.8903,-94.0367,2.0,234.0227929,1.668202626,-99999.0,'11133222,11111222,99999999' 
TABS,ioos:station:wmo:42046:1,2009-11-03T15:00:00Z,27.8903,-94.0367,2.0,270.0004209,0.92,-99999.0,'11133222,11111222,99999999' 
TABS,ioos:station:wmo:42046:1,2009-11-03T15:30:00Z,27.8903,-94.0367,2.0,314.4215915,6.300642824,-99999.0,'11133222,11111222,99999999' 
TABS,ioos:station:wmo:42046:1,2009-11-03T16:00:00Z,27.8903,-94.0367,2.0,317.0765899,4.684122116,-99999.0,'11133222,11111222,99999999' 
TABS,ioos:station:wmo:42046:1,2009-11-03T16:30:00Z,27.8903,-94.0367,2.0,328.2408046,1.975854246,-99999.0,'11133222,11111222,99999999' 
TABS,ioos:station:wmo:42046:1,2009-11-03T17:00:00Z,27.8903,-94.0367,2.0,331.6782372,3.646505176,-99999.0,'11133222,11111222,99999999' 
TABS,ioos:station:wmo:42046:1,2009-11-03T17:30:00Z,27.8903,-94.0367,2.0,336.628796,8.268403715,-99999.0,'11133222,11111222,99999999' 
TABS,ioos:station:wmo:42046:1,2009-11-03T18:00:00Z,27.8903,-94.0367,2.0,317.0870881,5.243138373,-99999.0,'11133222,11111222,99999999' 
TABS,ioos:station:wmo:42046:1,2009-11-03T18:30:00Z,27.8903,-94.0367,2.0,350.7719425,4.427301661,-99999.0,'11133222,11111222,99999999' 
TABS,ioos:station:wmo:42046:1,2009-11-03T19:00:00Z,27.8903,-94.0367,2.0,10.23996114,11.02561109,-99999.0,'11111222,11111222,99999999' 
TABS,ioos:station:wmo:42046:1,2009-11-03T19:30:00Z,27.8903,-94.0367,2.0,337.9239349,8.514229266,-99999.0,'11133222,11111222,99999999' 
TABS,ioos:station:wmo:42046:1,2009-11-03T20:00:00Z,27.8903,-94.0367,2.0,324.5210409,6.84001462,-99999.0,'11133222,11111222,99999999' 
TABS,ioos:station:wmo:42046:1,2009-11-03T20:30:00Z,27.8903,-94.0367,2.0,337.8709313,5.840214037,-99999.0,'11133222,11111222,99999999' 
TABS,ioos:station:wmo:42046:1,2009-11-03T21:00:00Z,27.8903,-94.0367,2.0,16.89143006,6.57359871,-99999.0,'11133222,11111222,99999999' 
TABS,ioos:station:wmo:42046:1,2009-11-03T21:30:00Z,27.8903,-94.0367,2.0,15.97497156,8.030099626,-99999.0,'11133222,11111222,99999999' 
TABS,ioos:station:wmo:42046:1,2009-11-03T22:00:00Z,27.8903,-94.0367,2.0,6.205838165,5.643066542,-99999.0,'11133222,11111222,99999999' 
TABS,ioos:station:wmo:42046:1,2009-11-03T22:30:00Z,27.8903,-94.0367,2.0,312.5876004,5.039067374,-99999.0,'11133222,11111222,99999999' 
TABS,ioos:station:wmo:42046:1,2009-11-03T23:00:00Z,27.8903,-94.0367,2.0,24.9012693,5.082489547,-99999.0,'11133222,11111222,99999999' 
TABS,ioos:station:wmo:42046:1,2009-11-03T23:30:00Z,27.8903,-94.0367,2.0,354.3407419,4.461748536,-99999.0,'11133222,11111222,99999999' 
TABS,ioos:station:wmo:42046:1,2009-11-04T00:00:00Z,27.8903,-94.0367,2.0,350.5379104,1.581518258,-99999.0,'11133222,11111222,99999999' 
TABS,ioos:station:wmo:42046:1,2009-11-04T00:30:00Z,27.8903,-94.0367,2.0,15.66020297,2.482136177,-99999.0,'11133222,11111222,99999999' 
TABS,ioos:station:wmo:42046:1,2009-11-04T01:00:00Z,27.8903,-94.0367,2.0,15.8803121,2.412053067,-99999.0,'11133222,11111222,99999999' 
TABS,ioos:station:wmo:42046:1,2009-11-04T01:30:00Z,27.8903,-94.0367,2.0,177.4305545,1.561569723,-99999.0,'11133222,11111222,99999999' 
TABS,ioos:station:wmo:42046:1,2009-11-04T02:00:00Z,27.8903,-94.0367,2.0,288.6406865,4.411405672,-99999.0,'11133222,11111222,99999999' 
TABS,ioos:station:wmo:42046:1,2009-11-04T02:30:00Z,27.8903,-94.0367,2.0,323.9471859,4.910498956,-99999.0,'11133222,11111222,99999999' 
TABS,ioos:station:wmo:42046:1,2009-11-04T03:00:00Z,27.8903,-94.0367,2.0,239.4294028,2.497078293,-99999.0,'11133222,11111222,99999999' 
TABS,ioos:station:wmo:42046:1,2009-11-04T03:30:00Z,27.8903,-94.0367,2.0,292.0154353,2.987858765,-99999.0,'11133222,11111222,99999999' 
TABS,ioos:station:wmo:42046:1,2009-11-04T04:00:00Z,27.8903,-94.0367,2.0,352.6062191,2.641968963,-99999.0,'11133222,11111222,99999999' 
TABS,ioos:station:wmo:42046:1,2009-11-04T04:30:00Z,27.8903,-94.0367,2.0,49.83450023,2.852718002,-99999.0,'11133222,11111222,99999999' 
TABS,ioos:station:wmo:42046:1,2009-11-04T05:00:00Z,27.8903,-94.0367,2.0,1.159212807,3.46070802,-99999.0,'11133222,11111222,99999999' 
TABS,ioos:station:wmo:42046:1,2009-11-04T05:30:00Z,27.8903,-94.0367,2.0,18.62174628,5.824946352,-99999.0,'11133222,11111222,99999999' 
TABS,ioos:station:wmo:42046:1,2009-11-04T06:00:00Z,27.8903,-94.0367,2.0,346.8276878,6.275109561,-99999.0,'11133222,11111222,99999999' 
TABS,ioos:station:wmo:42046:1,2009-11-04T06:30:00Z,27.8903,-94.0367,2.0,42.48485925,8.217426604,-99999.0,'11133222,11111222,99999999' 
TABS,ioos:station:wmo:42046:1,2009-11-04T07:00:00Z,27.8903,-94.0367,2.0,53.45293423,7.456118293,-99999.0,'11133222,11111222,99999999' 
TABS,ioos:station:wmo:42046:1,2009-11-04T07:30:00Z,27.8903,-94.0367,2.0,19.93345338,7.86094778,-99999.0,'11133222,11111222,99999999' 
TABS,ioos:station:wmo:42046:1,2009-11-04T08:00:00Z,27.8903,-94.0367,2.0,71.78219697,9.180157951,-99999.0,'11133222,11111222,99999999' 
TABS,ioos:station:wmo:42046:1,2009-11-04T08:30:00Z,27.8903,-94.0367,2.0,62.02059104,2.53647393,-99999.0,'11133222,11111222,99999999' 
TABS,ioos:station:wmo:42046:1,2009-11-04T09:00:00Z,27.8903,-94.0367,2.0,90.80692757,0.710070419,-99999.0,'11133222,11111222,99999999' 
TABS,ioos:station:wmo:42046:1,2009-11-04T09:30:00Z,27.8903,-94.0367,2.0,119.6432238,3.497785013,-99999.0,'11133222,11111222,99999999' 
TABS,ioos:station:wmo:42046:1,2009-11-04T10:00:00Z,27.8903,-94.0367,2.0,111.7328436,6.211513503,-99999.0,'11133222,11111222,99999999' 
TABS,ioos:station:wmo:42046:1,2009-11-04T10:30:00Z,27.8903,-94.0367,2.0,47.46291615,1.316434579,-99999.0,'11133222,11111222,99999999' 
TABS,ioos:station:wmo:42046:1,2009-11-04T11:00:00Z,27.8903,-94.0367,2.0,40.86925866,2.552214725,-99999.0,'11133222,11111222,99999999' 
TABS,ioos:station:wmo:42046:1,2009-11-04T11:30:00Z,27.8903,-94.0367,2.0,122.7806104,4.543566881,-99999.0,'11133222,11111222,99999999' 
TABS,ioos:station:wmo:42046:1,2009-11-04T12:00:00Z,27.8903,-94.0367,2.0,201.4250332,1.697291961,-99999.0,'11133222,11111222,99999999' 
TABS,ioos:station:wmo:42046:1,2009-11-04T12:30:00Z,27.8903,-94.0367,2.0,189.6855821,4.636086712,-99999.0,'11133222,11111222,99999999' 
TABS,ioos:station:wmo:42046:1,2009-11-04T13:00:00Z,27.8903,-94.0367,2.0,113.1103892,1.706985647,-99999.0,'11133222,11111222,99999999' 
TABS,ioos:station:wmo:42046:1,2009-11-04T13:30:00Z,27.8903,-94.0367,2.0,293.0707792,0.586941224,-99999.0,'11133222,11111222,99999999' 
TABS,ioos:station:wmo:42046:1,2009-11-04T14:00:00Z,27.8903,-94.0367,2.0,262.3035454,2.240178564,-99999.0,'11133222,11111222,99999999' 
TABS,ioos:station:wmo:42046:1,2009-11-04T14:30:00Z,27.8903,-94.0367,2.0,270.3928507,1.460034246,-99999.0,'11133222,11111222,99999999' 
TABS,ioos:station:wmo:42046:1,2009-11-04T15:00:00Z,27.8903,-94.0367,2.0,345.6952885,4.654309831,-99999.0,'11133222,11111222,99999999' 
TABS,ioos:station:wmo:42046:1,2009-11-04T15:30:00Z,27.8903,-94.0367,2.0,278.3805807,5.832272284,-99999.0,'11133222,11111222,99999999' 
TABS,ioos:station:wmo:42046:1,2009-11-04T16:00:00Z,27.8903,-94.0367,2.0,320.0550801,5.778321556,-99999.0,'11133222,11111222,99999999' 